[[{"header":{"parameterUnit":"m.s-1","parameterCategory":1,"la1":30.2992,"la2":30.254,"lo1":-89.0895,"lo2":-89.0443,"dy":0.0025,"dx":0.0025,"nx":19,"ny":19,"refTime":"2026-05-14T21:00:00:Z","depth":0,"parameterNumber":2,"parameterNumberName":"U-component_of_WINDS"},"data":[0,0,0,-2.1973,-2.1974,-2.1995,-2.1995,-2.2037,-2.2037,0,0,0,0,0,0,0,0,0,0,0,-2.1976,-2.1977,-2.1973,-2.1974,-2.1995,-2.1995,-2.2037,-2.2037,0,0,0,0,0,0,0,0,0,0,0,-2.1976,-2.1976,-2.1977,-2.1974,-2.1995,-2.1995,-2.2037,-2.2015,0,0,0,0,0,0,0,0,0,0,-2.1993,-2.2004,-2.1976,-2.1977,-2.1974,-2.1995,-2.1995,-2.2014,-2.2017,-2.2034,0,-2.2051,0,-2.2045,-2.2041,-2.2041,0,0,0,-2.1967,-2.2002,-2.1999,-2.1977,-2.1974,-2.1995,-2.1983,-2.2015,-2.2018,-2.2037,-2.2052,-2.2053,-2.2046,-2.2041,-2.2042,-2.2161,-2.2162,0,0,-2.1966,-2.1985,-2.1997,-2.2002,-2.1999,-2.1983,-2.1984,-2.2017,-2.2034,-2.2052,-2.2053,-2.2046,-2.2042,-2.2042,-2.216,-2.2161,0,0,0,-2.1967,-2.1984,-2.198,-2.2,-2.2003,-2.1984,-2.1985,-2.2032,-2.203,-2.2054,-2.2047,-2.2042,-2.2043,-2.2159,-2.216,-2.222,0,0,0,-2.1966,-2.1985,-2.198,-2.1992,-2.2003,-2.2018,-2.2,-2.2027,-2.203,-2.2047,-2.2042,-2.2043,-2.2158,-2.216,-2.2217,-2.2246,0,0,0,-2.1972,-2.1985,-2.1991,-2.1993,-2.2003,-2.2017,-2.2016,-2.2027,-2.2027,-2.2041,-2.2043,-2.2157,-2.2159,-2.2213,-2.224,-2.2282,0,0,0,-2.1983,-2.2046,-2.1993,-2.206,-2.2003,-2.2054,-2.2015,-2.2053,-2.2073,-2.2042,-2.2158,-2.216,-2.2212,-2.2237,-2.2278,-2.232,-2.2339,0,0,-2.2072,-2.2057,-2.2095,-2.2048,-2.2114,-2.2049,-2.2124,-2.2125,-2.2109,-2.2145,-2.2147,-2.2218,-2.224,-2.2281,-2.2441,-2.2456,0,0,0,-2.213,-2.2157,-2.2171,-2.219,-2.2192,-2.2195,-2.2183,-2.2183,-2.2212,-2.2131,-2.2244,-2.2256,-2.228,-2.2299,-2.2312,-2.2331,-2.217,-2.217,-2.2169,-2.2284,-2.226,-2.2321,-2.23,-2.2319,-2.2305,-2.2318,-2.2316,-2.2287,-2.2314,-2.2325,-2.2424,-2.2447,-2.2457,-2.2477,-2.2345,-2.2345,-2.2345,-2.2346,-2.2412,-2.2447,-2.2406,-2.2451,-2.2425,-2.2463,-2.2452,-2.243,-2.2461,-2.2415,-2.2434,-2.2386,-2.2474,-2.249,-2.235,-2.2349,-2.2349,-2.2348,-2.2348,-2.251,-2.2522,-2.2521,-2.2546,-2.2568,-2.2544,-2.2575,-2.2551,-2.2529,-2.2549,-2.2556,-2.2555,-2.2551,-2.2554,-2.2554,-2.2555,-2.2555,-2.2555,-2.2555,-2.2611,-2.2608,-2.2637,-2.2643,-2.2652,-2.2661,-2.2647,-2.2655,-2.2658,-2.2638,-2.2638,-2.2606,-2.2488,-2.2458,-2.2561,-2.256,-2.2559,-2.2559,-2.2558,-2.275,-2.2714,-2.2759,-2.2768,-2.2773,-2.2796,-2.2765,-2.2783,-2.2787,-2.2803,-2.2767,-2.2683,-2.2666,-2.2655,-2.2631,-2.2772,-2.2772,-2.2772,-2.2772,-2.2832,-2.2821,-2.286,-2.2876,-2.2888,-2.2864,-2.2916,-2.2905,-2.2889,-2.289,-2.2866,-2.2831,-2.2822,-2.281,-2.2796,-2.2773,-2.2947,-2.2947,-2.2947,-2.2916,-2.2904,-2.2952,-2.2935,-2.2937,-2.2939,-2.2987,-2.3006,-2.2981,-2.2954,-2.2889,-2.2882,-2.2826,-2.2809,-2.278,-2.2759,-2.2716,0,0]},{"header":{"parameterUnit":"m.s-1","parameterCategory":1,"la1":30.2992,"la2":30.254,"lo1":-89.0895,"lo2":-89.0443,"dy":0.0025,"dx":0.0025,"nx":19,"ny":19,"refTime":"2026-05-14T21:00:00:Z","depth":0,"parameterNumber":3,"parameterNumberName":"V-component_of_WINDS"},"data":[0,0,0,3.2037,3.2039,3.2102,3.2102,3.2193,3.2194,0,0,0,0,0,0,0,0,0,0,0,3.2027,3.2028,3.2037,3.2039,3.2102,3.2102,3.2193,3.2194,0,0,0,0,0,0,0,0,0,0,0,3.2026,3.2027,3.2029,3.2039,3.2102,3.2102,3.2192,3.2141,0,0,0,0,0,0,0,0,0,0,3.2078,3.2077,3.2027,3.2029,3.204,3.2102,3.2102,3.2138,3.2144,3.2169,0,3.2195,0,3.2196,3.22,3.2201,0,0,0,3.2033,3.2072,3.2081,3.2029,3.204,3.2102,3.2072,3.2141,3.2148,3.2177,3.2196,3.2199,3.2197,3.2201,3.2202,3.2369,3.237,0,0,3.2029,3.2042,3.2077,3.2086,3.2079,3.207,3.2074,3.2145,3.2167,3.2197,3.2201,3.2199,3.2202,3.2203,3.2368,3.2369,0,0,0,3.2024,3.204,3.2048,3.2083,3.2093,3.2072,3.2076,3.2163,3.2165,3.2202,3.22,3.2202,3.2204,3.2366,3.2368,3.2432,0,0,0,3.2021,3.2037,3.2047,3.2055,3.2092,3.213,3.2093,3.216,3.2167,3.22,3.2202,3.2205,3.2365,3.2367,3.2428,3.246,0,0,0,3.202,3.2036,3.2048,3.2056,3.2083,3.2128,3.2133,3.2161,3.2167,3.2201,3.2205,3.2364,3.2367,3.2424,3.2454,3.2506,0,0,0,3.2022,3.2106,3.205,3.2142,3.2083,3.2168,3.2133,3.2196,3.2233,3.2203,3.2365,3.2368,3.2423,3.245,3.2502,3.2552,3.2574,0,0,3.2135,3.212,3.2173,3.2125,3.2223,3.2157,3.2265,3.2287,3.2278,3.2339,3.2342,3.2429,3.2454,3.2506,3.2697,3.2715,0,0,0,3.2213,3.2251,3.2274,3.2311,3.2329,3.2347,3.2351,3.2359,3.2409,3.2312,3.2463,3.2477,3.2507,3.253,3.2545,3.2569,3.238,3.2379,3.2379,3.2391,3.2375,3.2461,3.2452,3.2487,3.2489,3.2516,3.2526,3.2501,3.2536,3.2554,3.2672,3.27,3.2711,3.2736,3.258,3.258,3.258,3.258,3.2553,3.2604,3.2566,3.2636,3.2617,3.2675,3.268,3.2659,3.2709,3.2658,3.2684,3.2628,3.2731,3.2752,3.2585,3.2584,3.2584,3.2583,3.2583,3.2667,3.2688,3.2695,3.2744,3.2783,3.277,3.2819,3.2802,3.2785,3.281,3.2825,3.2824,3.2819,3.2819,3.2819,3.282,3.282,3.2821,3.2821,3.2781,3.2787,3.2831,3.2856,3.2876,3.2899,3.29,3.2918,3.2933,3.2916,3.2916,3.2886,3.2745,3.2708,3.2827,3.2826,3.2825,3.2825,3.2824,3.2949,3.2907,3.2976,3.2995,3.3021,3.3059,3.3035,3.3073,3.3085,3.311,3.3073,3.2973,3.2956,3.2944,3.2914,3.3078,3.3078,3.3078,3.3078,3.3044,3.3033,3.3097,3.3128,3.3157,3.3142,3.3216,3.3218,3.3212,3.3218,3.3192,3.3151,3.3139,3.3129,3.3113,3.3085,3.3289,3.3289,3.3289,3.3145,3.3136,3.3204,3.3198,3.3217,3.3232,3.3301,3.3338,3.3323,3.3297,3.3222,3.3213,3.3147,3.3126,3.3099,3.3074,3.3021,0,0]}]]